Wind_Speed
39 41 45 50 52 52 51 52 54 52 50 52 52 51 50 50 54 55 54 53 51 49 48 46 46 45 43 41 41 39 38 36 35 34 34 34 33 33 34 34 34 33 33
34 36 41 45 48 48 49 50 50 48 48 49 49 47 47 48 51 54 54 53 52 50 49 48 47 45 43 43 42 41 39 37 36 36 35 35 35 35 35 35 35 35 34
29 34 39 40 41 43 44 48 49 48 46 45 46 47 47 48 49 51 52 52 52 52 51 50 48 47 45 44 43 41 40 38 37 37 37 37 36 36 36 36 36 35 34
25 28 34 36 35 37 39 41 43 45 46 44 44 45 46 47 48 49 49 50 51 52 52 50 49 48 46 44 44 43 42 39 38 37 37 37 37 37 36 36 35 35 34
19 22 26 30 31 34 34 35 38 40 40 41 43 42 42 43 44 46 46 45 45 47 48 49 49 48 47 46 44 43 42 40 39 38 37 37 37 37 37 36 36 36 36
14 17 20 23 27 29 31 33 36 36 37 37 39 41 40 39 41 42 43 43 44 45 46 48 48 47 47 45 44 43 42 41 41 39 40 39 38 39 38 37 36 35 35
11 13 15 16 19 22 26 28 29 28 30 34 36 38 38 37 39 40 41 43 44 44 45 46 46 45 45 44 44 43 42 41 41 41 41 40 40 39 39 37 36 35 35
8 9 9 10 12 14 17 20 23 23 24 27 31 34 36 36 36 37 39 41 42 42 43 43 44 45 45 44 44 44 43 43 44 44 43 42 40 39 38 37 37 36 36
8 7 7 9 11 11 12 13 15 20 21 21 23 29 33 35 36 37 37 38 39 40 41 41 42 42 43 43 44 44 44 44 45 44 43 42 40 39 38 37 37 37 38
10 8 6 7 9 9 10 10 12 14 16 17 18 22 27 30 33 35 36 36 37 39 42 43 42 42 42 42 44 44 43 43 44 44 43 41 40 39 38 39 40 40 40
11 9 7 6 6 7 7 9 10 12 14 15 15 17 21 24 27 30 30 31 32 33 35 37 38 40 42 43 43 42 41 42 43 43 42 41 40 40 40 41 41 42 42
11 9 6 5 4 6 7 7 8 9 11 12 13 15 18 21 24 26 29 31 33 34 35 36 37 38 40 40 41 41 41 41 43 44 43 42 43 43 43 43 44 45 45
9 7 5 3 2 3 6 6 7 8 11 13 15 16 17 19 23 26 29 30 32 33 34 35 36 37 38 39 39 40 40 41 42 43 44 44 44 44 45 45 46 47 47
6 5 3 2 2 4 6 8 9 11 13 15 17 19 20 22 23 25 27 30 31 32 34 35 36 38 39 40 41 43 44 44 44 45 46 46 46 46 46 46 47 47 47
3 2 2 3 5 7 9 11 13 15 17 19 21 23 25 26 28 30 32 33 34 36 37 38 40 41 42 44 45 46 47 48 48 48 48 48 48 47 48 48 47 47 47
3 4 6 7 10 12 14 15 17 19 21 24 26 27 29 31 33 35 36 38 39 41 43 44 44 45 46 48 49 49 50 50 49 49 49 50 50 49 48 48 47 46 46
6 8 9 11 13 15 17 19 21 23 26 28 30 32 34 36 39 40 42 43 44 45 46 47 48 49 50 50 51 51 51 51 51 50 50 50 49 49 48 47 47 46 46
9 11 13 15 16 18 21 23 25 27 30 32 34 37 39 41 43 45 46 47 49 50 50 51 51 52 52 53 53 52 52 51 51 51 50 49 49 49 49 47 47 46 46
12 14 16 18 20 23 25 27 30 32 34 37 40 42 45 47 48 50 51 52 52 53 53 54 54 54 54 54 54 53 53 52 51 51 51 51 50 49 49 48 48 47 46
15 17 19 22 24 26 29 31 33 36 39 41 44 47 49 51 52 54 55 55 56 56 56 55 54 54 54 54 54 53 53 52 52 52 51 51 50 50 49 48 48 48 46
18 20 22 24 27 30 32 35 38 40 43 46 48 50 52 54 56 57 57 58 58 57 56 56 55 55 54 54 53 53 53 53 53 53 52 51 50 50 49 49 48 47 46
21 23 25 28 31 34 36 39 42 45 47 49 52 54 56 58 59 59 60 60 59 59 58 56 55 54 54 53 53 53 52 53 53 53 52 52 51 50 49 49 47 46 45
24 27 29 32 36 39 41 44 47 50 52 53 55 57 59 61 62 62 62 61 60 58 57 56 55 54 53 53 53 53 53 53 53 52 53 52 52 51 49 49 47 46 45
29 31 34 37 40 43 46 49 51 53 55 57 58 60 61 62 63 63 62 61 60 59 57 56 54 54 53 53 53 53 53 54 53 52 52 51 51 51 49 48 47 46 45
32 35 38 41 44 47 50 52 55 56 58 60 61 61 61 62 62 61 60 59 58 58 56 55 54 52 51 51 52 52 52 52 52 52 51 50 49 48 48 47 47 45 44
36 39 42 45 48 50 53 55 57 59 60 60 60 61 61 61 60 59 58 57 56 55 55 54 52 50 50 50 50 51 51 51 51 51 50 50 49 48 47 46 45 44 43
Wind_Direction
218 218 216 215 213 214 213 213 214 215 216 216 219 221 223 224 223 222 223 225 227 230 232 235 239 241 242 244 246 250 252 254 257 260 262 265 268 270 272 274 275 277 279
213 213 214 213 214 213 212 212 212 213 215 214 216 220 222 224 223 223 224 226 227 229 231 235 238 240 242 245 248 252 252 254 257 260 263 264 266 268 270 273 274 276 279
212 211 210 210 214 212 211 211 210 212 212 212 215 218 220 223 224 225 226 227 229 231 234 236 238 240 243 246 249 252 253 255 257 260 262 263 266 269 271 273 274 277 280
205 207 210 211 214 212 211 210 208 210 212 214 216 218 220 223 226 227 228 230 232 234 236 238 239 242 245 246 249 252 254 255 257 259 262 263 266 269 270 271 273 276 279
198 206 208 209 211 207 206 206 205 206 210 212 216 218 219 221 224 227 229 231 232 234 237 239 241 243 245 247 249 252 254 255 257 259 261 264 267 269 271 270 271 275 278
186 197 202 205 208 205 204 204 205 209 210 213 216 218 219 221 225 228 229 232 234 236 239 242 243 245 248 250 251 253 255 258 259 261 263 264 266 270 271 271 271 273 276
180 187 191 201 207 205 207 205 209 210 212 215 217 219 221 224 228 231 232 234 236 239 242 244 245 248 250 251 252 256 259 260 260 262 263 263 267 268 268 269 272 274 276
171 177 179 183 192 200 206 207 211 212 214 217 220 222 224 227 230 232 234 236 239 242 244 245 248 250 251 253 254 257 260 261 261 262 263 265 266 266 267 269 271 273 275
144 150 170 182 187 194 197 198 205 213 216 218 225 227 231 233 235 238 241 243 244 246 248 249 250 251 253 255 255 257 260 260 260 261 263 264 264 266 267 269 271 274 276
137 138 143 164 183 188 191 199 207 210 216 222 228 232 236 239 242 245 245 247 248 252 253 253 254 254 254 255 258 260 261 261 262 263 265 265 267 269 269 270 272 275 278
135 132 130 150 180 196 204 215 221 225 227 228 229 233 236 239 243 245 247 251 252 254 255 255 256 256 256 257 259 260 262 262 262 262 262 265 268 269 270 272 274 275 277
130 131 130 145 175 206 213 218 231 237 238 239 243 244 244 246 250 251 251 252 254 256 257 256 258 259 259 259 261 260 262 261 261 261 263 267 269 269 269 271 273 274 276
138 138 141 164 192 227 221 227 246 255 259 261 265 264 264 263 262 261 260 261 262 261 262 261 261 262 261 261 261 261 262 263 262 264 266 268 269 268 269 271 272 274 275
149 148 150 202 262 269 263 261 264 270 272 272 272 272 272 270 269 269 268 267 266 266 266 265 264 263 263 263 263 264 264 265 265 267 267 267 267 268 269 270 272 273 275
183 200 232 267 277 280 278 278 278 278 278 277 275 274 273 273 271 271 270 269 269 268 266 266 266 265 264 263 263 264 264 265 265 265 266 266 267 267 269 270 271 272 274
249 262 271 276 280 283 284 284 284 283 283 282 280 280 279 278 278 276 274 272 272 271 269 267 266 265 264 263 263 263 263 264 265 265 265 265 266 267 268 269 270 272 273
279 280 283 285 287 287 285 284 283 284 284 283 283 283 283 282 281 280 278 276 275 273 270 268 267 266 265 264 263 263 263 263 263 263 263 264 265 265 266 267 269 270 271
300 297 295 293 293 292 290 289 288 287 286 286 285 284 284 283 281 280 279 278 277 275 273 270 269 268 266 265 264 263 262 262 262 262 262 262 263 264 265 266 267 269 270
302 299 297 296 296 296 295 294 293 292 290 290 289 287 286 285 283 282 280 279 278 276 275 272 271 269 267 265 263 262 262 261 260 260 260 261 262 262 263 264 266 267 268
304 302 300 298 297 297 296 295 295 293 292 290 289 288 287 285 284 284 283 282 280 278 276 274 272 269 267 264 262 261 261 260 259 259 260 261 261 262 263 263 264 265 267
307 305 302 301 300 299 298 297 296 295 293 292 291 289 288 288 286 285 284 283 281 279 277 275 273 270 267 264 263 261 260 259 258 258 258 259 259 260 261 262 263 264 265
310 307 305 304 302 301 300 298 297 296 294 292 291 290 288 288 287 286 285 283 281 280 278 275 273 270 266 264 261 259 258 257 256 256 256 256 257 258 259 259 260 262 263
311 309 307 305 304 303 301 299 298 296 295 293 292 291 289 288 287 286 285 283 281 280 278 275 273 269 266 262 260 257 255 255 254 254 254 255 255 255 256 257 258 259 260
311 310 308 307 306 304 303 301 300 298 296 295 293 291 290 289 288 286 285 283 282 280 278 275 272 269 266 262 258 255 253 253 253 252 253 253 253 254 254 255 256 257 259
311 310 309 308 307 306 304 303 302 300 298 296 294 292 291 289 288 287 285 284 282 280 278 275 272 269 265 260 256 253 251 251 251 250 250 251 252 252 253 254 255 256 257
311 311 310 309 308 307 306 305 303 301 299 298 295 293 292 290 288 286 285 284 282 280 278 276 273 270 266 261 256 252 250 249 249 249 249 249 249 250 251 252 253 254 255
Height
5619 5626 5635 5644 5654 5663 5673 5682 5691 5700 5707 5715 5722 5728 5735 5741 5748 5754 5760 5765 5771 5776 5781 5785 5789 5792 5795 5798 5801 5803 5805 5806 5808 5810 5811 5812 5812 5813 5813 5812 5812 5812 5811
5615 5623 5630 5639 5648 5657 5666 5675 5685 5693 5701 5709 5716 5722 5729 5735 5742 5747 5752 5758 5763 5768 5773 5777 5781 5784 5787 5790 5793 5795 5797 5799 5801 5802 5803 5804 5805 5805 5805 5805 5804 5804 5804
5614 5621 5628 5637 5645 5652 5660 5669 5678 5687 5695 5702 5709 5715 5722 5728 5734 5739 5745 5750 5755 5760 5765 5769 5773 5776 5779 5782 5785 5787 5789 5791 5793 5794 5795 5796 5797 5798 5798 5797 5797 5796 5796
5613 5620 5627 5634 5641 5648 5657 5665 5674 5682 5690 5697 5703 5710 5716 5723 5728 5733 5738 5743 5748 5752 5756 5761 5764 5768 5771 5774 5777 5779 5782 5783 5785 5786 5787 5788 5788 5789 5790 5790 5789 5789 5788
5613 5619 5626 5632 5638 5645 5654 5662 5670 5678 5685 5692 5698 5704 5711 5717 5722 5727 5732 5736 5741 5745 5749 5753 5757 5760 5763 5766 5769 5771 5773 5775 5776 5777 5778 5779 5780 5780 5781 5782 5781 5781 5780
5615 5621 5626 5631 5637 5644 5651 5658 5666 5674 5681 5688 5694 5699 5705 5711 5716 5721 5726 5730 5734 5738 5741 5745 5749 5752 5755 5758 5760 5763 5765 5767 5768 5769 5770 5770 5771 5772 5772 5772 5772 5772 5771
5617 5623 5628 5633 5638 5644 5650 5657 5664 5671 5678 5684 5689 5695 5700 5705 5710 5715 5720 5723 5727 5731 5734 5738 5741 5744 5746 5749 5752 5755 5756 5758 5759 5760 5760 5761 5762 5762 5762 5762 5762 5762 5762
5619 5624 5629 5633 5639 5644 5650 5656 5662 5668 5675 5681 5685 5690 5695 5700 5704 5709 5713 5717 5721 5724 5727 5730 5733 5736 5738 5741 5744 5745 5747 5748 5750 5750 5751 5751 5752 5752 5752 5753 5752 5753 5753
5622 5626 5631 5636 5641 5646 5650 5655 5660 5666 5672 5677 5681 5685 5691 5695 5699 5703 5707 5710 5714 5716 5719 5722 5725 5727 5730 5732 5734 5736 5737 5738 5739 5740 5740 5741 5741 5742 5742 5742 5742 5742 5742
5625 5629 5633 5638 5641 5646 5650 5654 5659 5664 5669 5673 5677 5681 5685 5689 5693 5697 5700 5703 5706 5709 5711 5714 5716 5718 5720 5722 5724 5725 5726 5727 5728 5729 5729 5730 5731 5731 5731 5731 5731 5731 5731
5628 5632 5635 5639 5642 5646 5650 5654 5658 5662 5666 5670 5674 5677 5680 5684 5687 5690 5693 5696 5698 5700 5702 5705 5707 5709 5711 5712 5713 5714 5715 5716 5717 5718 5718 5719 5719 5720 5720 5720 5720 5719 5719
5630 5634 5637 5640 5643 5646 5650 5653 5657 5660 5663 5667 5670 5672 5676 5678 5681 5683 5685 5688 5690 5692 5694 5695 5697 5698 5700 5701 5702 5703 5704 5705 5706 5706 5707 5708 5708 5708 5708 5708 5708 5707 5707
5632 5635 5638 5641 5643 5646 5649 5652 5654 5657 5660 5662 5665 5667 5670 5672 5674 5676 5678 5680 5681 5682 5684 5685 5686 5687 5688 5689 5690 5691 5691 5692 5693 5694 5695 5695 5695 5695 5696 5695 5695 5695 5694
5634 5636 5638 5641 5643 5645 5647 5649 5651 5653 5656 5657 5659 5661 5663 5665 5666 5668 5669 5670 5671 5672 5673 5674 5674 5676 5676 5677 5677 5678 5679 5680 5681 5681 5682 5682 5682 5682 5683 5682 5682 5682 5682
5634 5636 5638 5640 5641 5643 5644 5646 5647 5649 5650 5652 5653 5654 5656 5657 5657 5658 5659 5659 5660 5660 5661 5661 5662 5663 5663 5663 5664 5664 5665 5666 5667 5667 5668 5668 5669 5669 5669 5669 5669 5669 5669
5633 5635 5636 5637 5638 5640 5641 5642 5643 5643 5644 5645 5646 5646 5647 5647 5647 5647 5647 5648 5648 5648 5648 5648 5648 5648 5649 5649 5649 5650 5650 5651 5652 5653 5653 5654 5654 5654 5655 5655 5656 5656 5656
5632 5633 5634 5634 5635 5635 5636 5636 5637 5637 5637 5637 5637 5637 5636 5636 5635 5635 5634 5634 5633 5633 5633 5633 5633 5633 5633 5633 5633 5634 5635 5636 5636 5637 5638 5639 5639 5640 5641 5641 5641 5642 5642
5630 5630 5630 5630 5630 5630 5630 5630 5629 5629 5628 5628 5627 5626 5625 5624 5622 5621 5620 5619 5618 5617 5616 5616 5616 5616 5616 5616 5617 5617 5618 5620 5621 5622 5623 5624 5625 5626 5626 5627 5628 5628 5629
5628 5627 5627 5626 5625 5624 5623 5622 5620 5620 5618 5617 5616 5614 5612 5610 5608 5606 5604 5602 5601 5599 5598 5598 5597 5598 5598 5598 5599 5599 5601 5602 5604 5605 5607 5608 5609 5611 5612 5613 5614 5615 5615
5625 5624 5622 5621 5620 5618 5616 5614 5612 5610 5608 5606 5604 5601 5598 5595 5592 5590 5587 5584 5582 5581 5579 5579 5578 5579 5579 5580 5580 5581 5583 5585 5587 5589 5591 5592 5594 5595 5597 5598 5600 5601 5602
5621 5619 5617 5615 5613 5611 5608 5606 5603 5600 5597 5594 5590 5586 5583 5579 5576 5572 5569 5566 5563 5562 5560 5560 5559 5559 5560 5561 5562 5563 5565 5567 5569 5572 5574 5576 5578 5580 5582 5584 5586 5587 5588
5616 5614 5612 5609 5606 5603 5600 5597 5593 5589 5584 5580 5576 5571 5567 5562 5558 5554 5550 5546 5544 5542 5540 5539 5539 5540 5540 5542 5543 5545 5547 5549 5551 5555 5557 5560 5562 5564 5567 5569 5571 5573 5574
5611 5608 5604 5601 5597 5594 5590 5585 5580 5575 5569 5564 5559 5554 5549 5544 5539 5534 5530 5526 5523 5521 5520 5519 5519 5520 5520 5522 5524 5526 5528 5530 5533 5537 5540 5543 5546 5548 5551 5554 5556 5559 5561
5603 5600 5596 5592 5587 5582 5577 5571 5565 5558 5553 5547 5541 5535 5530 5524 5519 5514 5509 5506 5503 5501 5499 5499 5499 5500 5501 5502 5504 5506 5509 5512 5516 5519 5523 5526 5530 5533 5536 5539 5542 5544 5547
5596 5591 5587 5582 5576 5570 5563 5556 5549 5542 5535 5529 5522 5516 5510 5504 5499 5494 5490 5486 5483 5480 5479 5478 5478 5479 5481 5482 5484 5487 5490 5494 5498 5501 5505 5510 5514 5518 5521 5524 5527 5530 5533
5587 5582 5576 5570 5563 5556 5548 5541 5533 5525 5518 5511 5503 5497 5490 5484 5479 5475 5471 5466 5463 5461 5459 5458 5458 5459 5461 5463 5465 5469 5472 5476 5480 5484 5489 5494 5499 5503 5506 5510 5513 5516 5519